Wind_Speed
4 5 6 7 7 7 7 7 6 4 2 1 2 2 2 2 2 1 1 0 2 1 2 3 3 4 4 4 3 2 1 1 2 5 6 6 6 6 6 6 5 4 3 3 4 5 5 6 6 4 2 1 1 2 2 3 3 3 3 5 6 7 8
5 6 6 6 6 7 8 7 6 4 3 1 1 2 2 1 1 1 1 1 2 2 2 4 3 3 3 3 4 4 5 5 3 1 2 2 3 3 4 5 4 3 3 4 5 4 3 4 6 5 4 2 1 1 2 3 3 3 4 5 7 8 9
6 6 6 6 6 7 7 7 6 4 3 2 2 2 1 0 2 3 3 2 2 1 1 2 1 0 0 1 1 2 3 5 7 7 6 6 5 4 4 4 3 2 2 3 3 3 2 3 5 7 6 4 3 3 2 0 0 1 2 3 4 5 6
6 8 8 7 7 8 7 7 6 5 4 3 2 1 1 2 2 3 3 2 2 1 2 1 0 1 2 2 2 4 6 7 8 9 9 9 8 7 7 7 6 5 5 4 4 4 4 4 5 7 7 4 4 5 5 4 3 3 3 3 3 3 4
6 8 9 9 9 9 8 7 6 5 4 3 2 1 2 2 1 2 2 1 2 4 4 4 4 3 3 4 6 8 8 8 8 7 7 7 8 8 8 8 8 6 5 5 4 3 3 3 3 5 5 5 5 6 6 5 4 3 3 3 4 4 4
5 7 8 8 9 9 8 6 6 4 3 3 2 1 2 2 1 2 2 4 7 8 9 9 9 10 10 10 10 10 9 9 7 6 6 7 8 9 9 8 7 6 5 4 4 3 3 3 3 3 4 6 7 8 7 6 5 4 3 3 4 4 4
7 5 3 4 5 7 7 5 4 3 2 2 1 1 2 2 1 2 5 8 9 9 9 10 10 11 11 11 11 11 10 10 9 8 8 8 9 9 9 9 8 7 6 6 5 5 5 5 5 4 4 6 7 8 7 6 4 2 1 1 3 4 5
8 6 4 3 3 5 6 4 3 2 1 1 1 3 5 5 4 5 6 7 8 8 8 8 8 9 10 10 10 10 9 10 9 9 9 8 8 9 9 9 9 9 9 9 9 9 8 8 7 6 5 5 7 8 7 6 4 2 1 2 4 6 7
11 9 7 7 5 5 4 3 2 1 0 0 2 5 6 7 7 7 6 5 6 6 6 7 8 9 10 10 10 10 10 11 10 10 10 10 10 10 10 11 11 11 11 11 11 11 11 11 10 10 8 5 5 7 8 5 4 3 2 3 5 6 8
16 13 11 9 8 6 5 4 3 2 1 1 2 4 6 7 7 7 6 5 4 5 6 8 8 10 11 12 12 12 12 13 13 12 12 12 11 11 11 11 11 11 12 12 12 12 11 12 12 11 10 9 7 6 7 6 3 1 2 3 4 5 7
18 17 15 11 9 8 7 5 4 3 2 2 2 2 4 5 6 7 6 5 4 5 6 8 9 10 11 12 13 13 13 14 13 13 13 12 12 11 11 10 10 10 11 12 11 11 11 11 11 10 10 10 9 8 8 7 4 2 3 4 4 5 7
20 18 16 11 10 12 11 9 7 5 4 3 2 2 2 3 4 5 5 5 4 4 4 6 7 8 9 9 10 11 12 12 11 11 12 11 10 10 9 9 8 8 9 9 9 9 9 9 9 9 9 9 8 8 7 6 5 5 5 7 7 8 9
23 19 17 13 13 16 16 13 11 8 6 5 4 3 3 2 2 3 4 4 3 3 2 3 4 5 6 6 6 7 7 8 8 7 8 8 8 7 6 6 6 5 5 5 5 6 6 6 7 7 8 8 9 9 9 8 8 8 8 9 10 10 11
25 21 18 15 14 16 17 16 14 11 9 7 6 5 4 3 3 3 3 4 4 4 3 2 2 2 3 3 3 3 3 3 4 3 3 3 3 4 4 4 4 4 4 3 3 3 2 3 4 5 6 8 9 10 10 10 10 10 11 11 11 12 12
27 24 21 18 16 17 18 17 16 14 12 10 9 7 6 5 5 4 3 3 3 3 3 2 2 1 0 0 0 0 1 1 1 1 1 2 2 1 1 0 1 2 2 2 2 1 1 1 2 3 5 7 8 9 9 10 11 11 11 12 12 13 14
27 25 24 21 19 18 19 18 17 16 15 12 10 9 7 6 6 5 5 4 3 2 2 2 2 2 2 3 3 3 3 3 4 4 4 5 5 4 4 3 3 3 2 3 3 3 3 2 2 3 4 5 6 7 8 9 10 10 11 12 13 14 15
24 24 24 22 21 20 19 19 18 18 17 14 12 11 9 8 8 8 7 6 5 4 4 4 3 3 3 4 5 5 5 5 5 5 6 6 6 6 6 5 5 5 4 4 4 4 4 4 4 4 4 5 6 7 8 9 10 10 11 12 13 14 14
21 22 22 22 22 21 20 18 19 19 17 15 14 14 13 12 11 11 10 9 8 7 7 6 6 6 6 6 6 7 6 6 6 5 5 6 7 7 8 8 8 7 6 6 5 4 4 4 5 5 4 5 6 7 9 10 11 11 11 12 13 14 15
21 21 21 21 21 21 20 19 20 21 18 16 16 16 15 14 13 13 13 12 12 11 10 9 9 10 9 8 9 9 8 8 7 6 6 6 7 8 9 9 10 9 8 7 6 6 6 6 6 6 5 6 7 9 10 11 11 12 13 14 14 15 16
23 22 21 21 21 21 20 20 22 23 20 18 18 18 17 16 15 15 15 15 15 14 13 12 12 13 12 11 11 11 11 11 11 9 8 8 10 10 11 11 11 11 10 9 7 7 8 8 8 8 8 8 9 10 10 11 11 12 14 15 16 16 17
22 23 22 21 21 22 22 22 22 23 23 22 21 21 20 18 17 18 18 17 17 17 17 16 16 16 15 13 13 14 15 15 15 14 12 11 12 13 14 15 14 13 12 11 9 9 9 9 10 10 10 10 10 11 11 11 12 13 15 15 16 17 17
19 21 21 21 22 24 24 22 22 23 24 24 25 25 23 22 20 21 22 21 20 20 19 19 19 17 16 15 16 17 18 18 19 17 15 15 15 15 16 18 17 16 16 14 13 12 11 10 11 12 12 12 12 13 12 12 13 14 15 15 16 16 17
19 18 18 20 23 25 24 22 22 24 24 25 27 28 27 27 24 23 24 23 22 21 20 20 19 17 17 17 18 18 19 19 20 20 18 18 18 18 17 18 18 18 19 17 15 15 14 12 13 13 13 13 14 14 14 14 15 15 15 15 16 17 18
19 19 17 19 22 24 23 22 23 25 25 25 27 28 28 28 27 28 26 22 22 22 19 17 18 17 17 17 17 17 18 18 20 20 20 20 20 18 17 17 17 17 18 18 18 18 17 16 16 15 15 15 15 16 15 15 16 17 16 17 17 18 20
16 18 19 20 22 24 24 24 24 23 23 24 25 25 25 24 24 27 27 22 21 20 16 13 14 14 14 13 13 13 14 15 16 17 17 18 18 17 16 16 16 17 19 20 20 20 19 18 18 17 17 17 18 18 18 17 18 18 18 19 19 20 22
15 17 18 20 21 21 21 21 20 19 20 21 18 14 15 16 15 17 20 19 17 15 12 10 9 9 9 9 10 11 12 13 14 14 15 15 16 16 16 17 17 18 19 18 19 20 20 20 19 18 18 19 19 19 18 18 19 19 19 20 21 22 23
16 16 17 17 17 16 15 15 15 15 16 14 8 6 9 10 9 10 12 13 11 10 9 8 7 6 7 8 9 10 11 11 12 12 13 14 15 16 17 17 17 18 17 16 16 19 22 22 20 19 19 20 19 18 18 19 19 20 20 21 22 23 25
12 14 15 15 15 14 14 13 11 10 10 7 6 7 7 7 8 8 9 8 8 7 7 7 6 6 7 8 9 9 9 9 10 10 10 11 12 13 14 15 16 16 16 15 15 18 21 22 21 21 20 19 19 18 19 19 20 20 21 22 23 24 25
9 10 12 12 12 12 11 11 9 8 8 8 8 8 7 7 8 8 8 8 8 8 8 8 8 8 8 8 8 8 8 8 9 9 9 9 9 10 11 12 13 14 14 13 13 15 19 21 22 22 20 19 19 19 19 20 21 22 23 24 25 26 27
9 9 10 10 10 10 9 9 9 9 9 9 9 9 9 9 9 9 9 9 9 9 9 9 9 9 8 8 7 7 7 8 8 8 9 9 8 9 9 10 10 11 10 10 11 15 19 21 21 20 19 19 19 19 20 21 22 24 25 26 27 28 29
9 9 10 9 10 10 10 10 10 10 10 10 9 10 10 9 9 9 10 9 10 10 10 9 9 9 9 8 8 8 8 8 9 9 9 9 9 8 8 8 7 6 6 8 12 16 18 19 20 20 19 18 18 19 21 22 23 24 26 27 29 30 31
10 9 8 8 10 12 11 11 11 11 11 11 11 11 10 9 8 7 7 8 9 9 10 10 10 10 10 11 10 10 9 9 9 9 10 10 10 9 8 7 6 5 6 10 14 17 19 20 20 19 17 17 18 20 21 22 23 25 27 28 29 30 31
15 12 9 9 11 13 12 11 11 11 10 10 10 10 8 7 7 6 6 6 7 9 10 11 12 12 13 13 13 12 11 10 10 10 10 10 10 9 8 7 7 8 10 13 16 18 18 18 18 17 17 18 19 20 22 24 26 28 29 30 31 31 32
17 18 17 16 15 15 13 12 11 11 10 9 9 8 7 6 6 6 6 6 6 7 9 11 12 13 14 14 14 12 11 10 9 10 9 9 8 8 7 7 8 9 11 13 15 17 17 17 17 17 18 19 20 22 24 27 29 30 31 31 31 32 32
17 18 20 21 20 19 17 16 15 14 13 12 10 9 8 7 6 6 6 7 8 9 10 11 11 11 11 11 11 11 10 9 8 8 8 7 7 7 8 8 9 11 12 14 15 16 16 16 16 17 19 20 22 25 27 28 29 30 30 30 31 32 31
16 17 18 20 20 20 19 18 17 17 16 15 13 12 11 10 9 9 9 10 10 12 13 13 12 11 11 10 9 8 8 7 7 7 7 7 8 8 9 10 12 13 14 15 15 15 15 15 16 19 21 23 25 26 27 27 28 29 29 30 30 30 30
18 17 16 16 17 18 17 17 16 15 14 13 12 12 12 11 11 11 11 12 12 13 14 14 12 12 11 10 9 7 7 7 7 7 7 8 9 9 10 11 13 14 15 15 14 14 15 16 18 20 22 23 24 25 25 26 27 28 28 28 29 30 30
Wind_Direction
331 342 350 346 340 341 344 348 353 358 351 315 289 292 304 316 335 334 252 104 104 120 119 114 105 103 104 102 99 84 69 244 250 254 262 268 263 252 242 235 235 230 221 198 181 173 156 140 133 128 127 145 282 288 284 277 266 275 288 286 282 283 288
308 328 340 337 332 329 329 330 333 336 337 332 311 309 315 331 38 101 130 111 114 113 102 107 107 100 94 91 92 88 83 84 85 116 230 241 231 221 220 217 222 224 199 180 177 178 175 158 153 151 145 160 216 261 277 272 269 277 288 290 290 295 302
304 321 331 326 321 319 317 315 314 316 321 330 324 318 315 77 101 113 121 120 124 124 115 115 110 86 277 238 196 153 128 107 101 108 116 120 125 137 156 159 155 160 164 173 179 178 171 159 159 155 148 161 164 121 99 209 325 347 344 335 320 320 325
308 320 327 324 317 313 309 309 312 318 327 337 336 358 121 126 108 104 102 112 144 161 155 161 247 282 271 236 173 149 145 135 125 121 116 113 111 112 119 121 116 111 108 112 121 124 125 127 143 150 148 161 163 132 114 107 89 63 49 43 32 21 8
312 320 324 321 313 309 307 312 320 329 342 353 355 52 111 128 101 47 26 61 123 129 122 112 104 106 112 120 127 130 133 134 130 125 119 114 110 110 115 114 109 107 103 102 106 108 115 123 141 156 162 176 178 157 134 121 111 103 91 74 62 48 28
290 307 316 309 302 303 306 315 324 338 358 1 3 52 110 131 58 10 44 100 114 113 107 101 98 97 98 101 106 110 114 114 112 110 108 104 101 102 104 104 104 102 100 98 92 84 84 91 105 133 156 171 178 168 152 143 135 125 111 88 64 40 20
259 255 269 286 288 293 300 313 321 342 12 356 2 128 141 143 106 77 103 112 111 107 101 96 95 95 95 97 99 100 102 102 100 101 100 97 97 98 98 99 100 97 95 92 84 79 76 74 78 94 129 156 167 167 164 162 157 142 98 51 17 357 350
236 200 212 275 270 271 285 302 312 327 30 3 145 146 144 139 126 116 116 114 109 105 98 91 91 94 96 98 100 102 104 103 102 102 102 99 98 99 99 99 98 97 95 89 83 77 73 70 70 73 94 140 160 165 170 177 189 212 319 337 325 321 326
218 205 251 265 227 229 255 268 286 289 263 146 155 153 147 142 137 130 128 124 115 106 99 96 95 96 97 97 96 98 99 100 100 100 100 99 97 95 95 95 94 95 93 88 83 78 75 74 74 77 83 100 137 160 169 179 201 228 283 312 312 313 318
220 224 243 228 208 222 234 236 251 260 263 229 172 165 158 155 150 145 145 143 131 116 108 104 100 98 97 96 96 95 94 95 95 95 94 92 92 91 91 93 95 97 97 92 86 81 78 76 76 80 88 92 101 129 148 153 158 192 301 313 313 314 319
221 224 228 215 217 227 219 227 243 251 258 247 216 190 178 175 166 160 161 159 148 131 121 114 109 106 103 101 101 100 98 96 95 96 95 94 94 93 94 97 100 103 101 95 89 82 76 74 73 73 78 83 87 96 113 122 116 66 4 348 338 330 330
222 219 220 214 219 214 202 205 217 234 248 238 230 220 203 200 184 176 173 169 161 144 131 124 119 116 113 110 110 110 109 106 103 101 101 101 100 100 102 106 109 111 107 97 89 83 74 69 66 61 58 58 60 62 71 76 62 32 10 358 352 346 341
224 222 220 212 212 206 196 194 201 218 234 229 226 219 210 212 196 181 175 175 177 167 151 139 129 120 116 113 113 115 114 114 113 110 107 109 111 113 116 119 121 121 118 108 94 82 73 64 56 49 43 38 34 31 31 28 23 16 6 358 354 350 345
222 229 224 210 208 205 198 199 204 210 217 221 222 217 218 226 221 198 175 172 178 180 182 173 157 139 122 116 111 108 101 100 107 108 105 108 117 128 134 137 142 141 138 136 120 94 69 52 41 33 28 23 20 17 13 9 7 4 359 354 352 347 345
224 233 223 207 207 206 202 206 210 209 211 217 219 218 223 229 231 232 214 193 185 186 199 210 208 211 207 244 263 282 329 332 339 344 339 328 326 312 286 287 204 176 174 186 192 197 259 346 1 6 9 9 8 6 4 1 359 356 352 348 346 343 342
229 228 215 208 211 209 206 211 214 211 212 218 217 213 216 220 223 229 228 224 220 213 228 249 265 288 300 299 293 290 286 289 296 303 307 307 309 309 307 311 311 292 266 258 249 246 256 270 292 320 342 352 355 355 352 349 347 346 344 341 339 338 337
228 217 209 211 214 214 213 215 214 211 215 221 218 212 215 220 223 227 228 228 229 232 238 245 256 270 281 288 291 289 284 280 283 289 297 300 300 300 300 298 298 294 289 285 274 263 260 262 275 297 323 338 343 343 339 336 334 335 335 333 332 332 332
220 211 210 214 215 217 218 217 215 214 219 223 220 220 222 224 230 233 233 234 234 239 244 246 248 250 253 262 269 275 276 272 273 277 283 289 290 290 288 287 288 289 293 296 293 286 280 279 286 297 314 327 332 335 335 331 328 327 327 325 324 324 326
222 216 216 218 217 217 218 217 213 214 221 225 226 229 229 229 233 233 235 237 238 241 248 254 257 254 253 254 257 261 265 267 268 267 271 279 282 283 283 281 281 283 287 291 291 292 293 293 294 294 301 315 324 330 332 329 325 321 320 321 320 320 321
227 224 224 224 223 221 222 223 218 217 222 230 234 236 233 229 229 232 237 239 239 243 249 253 256 256 258 261 262 260 259 262 264 263 267 275 277 278 279 277 276 279 282 285 287 288 289 289 289 289 292 301 309 314 316 318 318 315 314 316 318 320 322
229 229 229 229 227 225 227 230 228 226 228 234 240 240 235 230 232 239 244 245 247 251 253 254 256 259 263 267 269 268 265 265 265 262 265 274 275 276 274 271 270 272 276 280 281 279 279 280 282 282 282 288 297 300 302 305 308 308 308 311 315 320 324
233 231 230 230 228 228 231 235 239 239 237 237 241 241 238 239 242 244 245 249 256 259 260 262 261 261 264 267 268 270 269 270 272 268 267 270 274 277 276 273 271 270 271 273 275 276 276 274 274 276 277 283 291 295 296 298 300 302 304 309 314 319 321
232 229 228 231 231 231 235 240 245 247 244 242 243 242 242 245 247 248 248 252 260 265 266 266 262 260 265 268 266 266 267 270 273 270 266 265 269 271 270 270 270 270 271 272 274 276 279 276 274 276 276 279 286 291 291 292 295 300 305 310 314 316 317
228 228 229 232 234 236 242 247 250 250 250 249 249 249 249 251 254 255 253 255 264 271 273 267 260 258 259 260 260 260 262 264 265 265 265 265 267 265 259 260 265 266 270 274 274 273 273 274 274 275 273 275 279 284 286 289 296 304 310 313 315 316 317
234 234 235 235 238 243 248 250 250 251 253 253 253 253 252 255 258 256 253 255 264 271 272 262 252 248 247 251 258 262 266 267 267 268 268 268 267 263 256 257 259 259 264 270 271 268 265 265 268 268 269 274 279 282 287 293 300 307 311 313 316 318 319
237 238 237 237 240 244 245 246 249 253 258 262 263 254 240 240 247 247 245 250 256 256 250 240 233 234 243 255 265 270 273 275 275 275 273 271 269 267 264 263 260 257 257 261 265 265 261 259 261 262 265 271 276 280 287 296 302 307 310 313 315 317 318
240 240 239 237 238 238 238 242 247 253 259 264 262 225 204 208 216 224 230 234 236 230 222 221 229 245 261 268 272 276 278 280 281 280 277 274 271 268 267 264 260 256 252 250 257 262 258 255 257 258 260 265 271 279 289 297 301 304 308 311 313 314 315
247 242 237 234 234 234 235 238 239 238 237 225 198 190 191 191 198 208 213 213 214 216 220 231 246 259 269 276 280 282 285 288 292 293 291 287 281 274 269 266 261 255 248 245 252 259 258 256 256 255 258 266 276 286 293 297 299 302 307 309 310 310 311
256 243 231 228 228 225 224 225 222 213 207 199 192 193 197 203 207 208 212 218 229 238 242 248 252 255 261 269 277 284 290 296 301 306 308 304 299 289 279 272 265 256 250 249 253 256 255 255 255 255 261 272 282 287 292 296 300 304 307 308 308 308 308
255 245 234 229 227 223 219 215 211 207 202 198 194 194 201 212 217 221 229 240 248 253 256 257 257 258 260 264 274 285 291 296 303 312 316 313 307 298 286 277 268 261 258 258 254 249 248 250 252 256 265 275 282 286 292 297 301 303 304 305 305 306 307
257 251 248 245 237 230 221 209 203 205 208 207 203 203 209 214 219 227 237 245 253 256 257 259 259 261 264 269 278 285 289 294 299 305 310 311 309 305 298 291 284 277 270 255 243 239 241 246 254 262 272 278 283 288 292 296 299 301 302 302 302 302 303
264 255 254 251 238 228 219 215 217 219 223 224 220 215 213 209 209 217 227 239 252 257 260 262 264 266 269 272 277 280 283 289 294 298 302 304 305 307 309 310 306 289 259 241 235 236 242 250 259 268 276 282 285 289 293 297 299 299 299 298 298 298 300
258 249 244 235 227 226 225 224 223 220 219 218 215 209 204 200 200 205 218 235 249 256 258 261 262 263 266 269 271 273 278 285 291 293 295 298 301 305 308 309 300 278 257 247 244 247 252 259 266 273 279 284 288 291 295 297 297 296 296 296 296 297 299
251 245 238 230 222 223 225 222 219 221 223 221 215 211 212 217 224 229 238 249 261 268 269 268 265 263 262 263 265 267 272 279 284 287 289 292 296 298 295 292 285 274 268 265 262 260 263 268 273 280 285 289 291 292 293 293 293 294 294 295 297 300 302
245 240 233 228 225 224 224 223 224 229 234 234 231 231 234 240 247 255 265 274 286 296 298 292 286 281 275 269 266 264 265 266 269 277 283 285 287 286 283 280 276 271 270 270 268 267 271 276 283 288 290 290 290 289 290 290 291 293 296 298 301 303 304
238 239 234 229 226 224 224 225 225 229 236 240 243 246 249 252 258 265 276 286 295 304 307 305 301 298 292 285 276 268 265 264 264 269 274 274 276 278 277 274 271 267 266 266 267 272 279 285 288 290 289 289 289 290 291 292 295 298 301 303 305 306 307
232 232 233 229 226 222 220 222 225 228 236 242 247 251 253 257 263 268 276 286 293 299 303 303 301 300 300 297 289 280 278 276 271 266 264 263 265 268 270 270 268 266 265 267 270 275 279 282 285 287 288 288 290 291 294 298 301 303 305 306 307 308 309
Height
1533 1532 1532 1532 1532 1532 1533 1533 1534 1535 1536 1537 1537 1538 1539 1539 1539 1539 1539 1540 1540 1541 1541 1541 1542 1542 1542 1543 1543 1543 1544 1544 1545 1546 1547 1548 1548 1548 1549 1550 1551 1552 1553 1554 1555 1556 1556 1557 1558 1559 1559 1560 1561 1561 1561 1561 1561 1561 1561 1561 1561 1561 1561
1534 1534 1533 1533 1533 1533 1533 1534 1534 1535 1536 1537 1538 1538 1539 1540 1540 1540 1540 1541 1541 1542 1542 1542 1542 1542 1543 1543 1543 1544 1544 1544 1544 1545 1546 1547 1548 1548 1549 1550 1551 1552 1552 1553 1554 1555 1556 1557 1558 1559 1560 1560 1561 1561 1561 1561 1561 1561 1561 1561 1561 1561 1560
1535 1535 1534 1534 1534 1535 1535 1535 1535 1536 1536 1537 1538 1538 1539 1540 1541 1541 1541 1541 1542 1542 1542 1542 1542 1542 1542 1543 1543 1544 1544 1544 1544 1545 1546 1546 1547 1548 1549 1550 1550 1551 1552 1553 1554 1555 1556 1557 1558 1559 1560 1560 1561 1561 1561 1561 1561 1561 1561 1561 1561 1561 1560
1535 1535 1535 1536 1536 1536 1536 1536 1536 1536 1537 1537 1538 1539 1540 1541 1541 1542 1542 1542 1542 1542 1542 1542 1542 1542 1542 1542 1543 1543 1544 1544 1544 1545 1546 1546 1547 1548 1549 1549 1550 1551 1552 1552 1553 1554 1555 1556 1557 1559 1560 1560 1560 1561 1561 1561 1562 1562 1561 1561 1561 1561 1561
1534 1535 1536 1537 1537 1538 1538 1537 1537 1537 1537 1538 1538 1539 1540 1541 1542 1542 1542 1542 1542 1542 1542 1542 1542 1541 1542 1542 1542 1543 1544 1544 1545 1545 1546 1547 1547 1548 1548 1549 1550 1551 1552 1553 1554 1554 1555 1556 1557 1558 1559 1560 1560 1560 1561 1561 1562 1562 1562 1562 1561 1561 1561
1534 1535 1536 1537 1538 1539 1539 1539 1538 1538 1538 1539 1539 1539 1541 1541 1542 1543 1543 1543 1543 1543 1543 1542 1542 1542 1543 1543 1543 1544 1544 1545 1545 1546 1547 1547 1547 1548 1548 1549 1550 1551 1552 1553 1554 1554 1555 1556 1556 1557 1558 1559 1559 1560 1561 1561 1562 1562 1562 1562 1562 1561 1561
1535 1535 1536 1538 1539 1539 1540 1540 1539 1539 1539 1539 1539 1540 1541 1542 1542 1543 1543 1544 1544 1544 1543 1543 1543 1543 1544 1544 1545 1545 1545 1546 1546 1547 1548 1548 1549 1549 1549 1550 1551 1551 1552 1553 1554 1555 1555 1556 1556 1557 1558 1558 1559 1560 1561 1562 1562 1562 1562 1562 1562 1562 1561
1536 1536 1536 1538 1539 1540 1541 1541 1540 1540 1539 1540 1540 1540 1541 1542 1543 1543 1544 1545 1545 1545 1544 1544 1544 1544 1545 1546 1546 1546 1546 1547 1547 1548 1549 1549 1550 1550 1551 1551 1551 1552 1553 1554 1555 1555 1556 1556 1557 1557 1558 1558 1559 1560 1561 1562 1562 1562 1562 1562 1562 1561 1561
1535 1536 1536 1538 1539 1540 1541 1541 1541 1540 1540 1540 1541 1541 1541 1542 1543 1544 1545 1546 1546 1546 1546 1545 1545 1545 1546 1546 1547 1547 1547 1548 1548 1549 1550 1550 1551 1552 1552 1552 1552 1553 1554 1554 1555 1556 1557 1557 1558 1558 1558 1558 1559 1560 1561 1562 1562 1562 1562 1562 1562 1561 1560
1533 1535 1537 1538 1538 1539 1540 1541 1540 1540 1540 1541 1541 1542 1542 1543 1543 1544 1545 1546 1547 1547 1547 1547 1547 1547 1547 1548 1548 1548 1549 1549 1549 1550 1551 1551 1552 1552 1553 1553 1554 1554 1555 1555 1556 1557 1557 1558 1558 1558 1559 1559 1559 1560 1560 1561 1562 1562 1562 1561 1561 1560 1560
1531 1534 1536 1537 1538 1539 1539 1540 1540 1541 1541 1541 1542 1543 1544 1544 1544 1545 1546 1547 1547 1547 1547 1547 1548 1548 1549 1549 1549 1550 1550 1551 1551 1551 1552 1553 1553 1554 1554 1554 1555 1555 1556 1556 1557 1557 1558 1558 1559 1559 1559 1560 1560 1560 1560 1561 1561 1561 1561 1560 1560 1559 1559
1530 1533 1534 1535 1537 1537 1538 1539 1540 1541 1541 1542 1542 1543 1544 1545 1545 1546 1547 1547 1548 1548 1548 1549 1549 1550 1550 1551 1551 1551 1552 1552 1553 1553 1553 1554 1554 1555 1555 1556 1556 1556 1556 1557 1557 1558 1558 1559 1559 1559 1559 1560 1560 1560 1560 1560 1560 1560 1560 1560 1559 1559 1558
1529 1531 1533 1534 1535 1536 1537 1538 1539 1540 1541 1542 1543 1543 1544 1545 1546 1547 1547 1548 1548 1549 1550 1550 1551 1551 1551 1552 1552 1553 1553 1553 1554 1554 1555 1555 1555 1556 1556 1556 1556 1557 1557 1557 1558 1558 1558 1559 1559 1559 1559 1560 1560 1560 1560 1560 1560 1560 1559 1559 1559 1558 1557
1527 1529 1531 1532 1534 1535 1536 1537 1539 1540 1541 1542 1542 1543 1544 1545 1546 1547 1547 1548 1549 1549 1550 1551 1551 1552 1552 1553 1553 1554 1554 1555 1555 1556 1556 1556 1557 1557 1557 1557 1557 1557 1557 1557 1558 1558 1558 1559 1559 1559 1559 1560 1560 1560 1560 1560 1559 1559 1559 1558 1558 1557 1557
1525 1527 1529 1531 1533 1534 1534 1536 1538 1539 1540 1541 1542 1543 1544 1545 1545 1546 1547 1548 1549 1549 1550 1551 1552 1552 1553 1553 1554 1554 1555 1555 1555 1556 1556 1557 1557 1558 1558 1558 1558 1558 1558 1558 1558 1558 1558 1559 1559 1559 1559 1560 1560 1560 1559 1559 1559 1559 1558 1558 1557 1557 1556
1524 1525 1527 1529 1531 1532 1533 1535 1536 1538 1539 1541 1542 1543 1544 1545 1545 1546 1547 1547 1548 1549 1550 1551 1551 1552 1553 1554 1554 1555 1555 1555 1555 1556 1556 1556 1557 1558 1558 1558 1558 1558 1558 1558 1558 1558 1558 1558 1559 1559 1559 1559 1559 1559 1559 1559 1559 1558 1558 1557 1557 1556 1555
1522 1523 1525 1527 1529 1531 1532 1534 1536 1537 1539 1540 1542 1543 1544 1544 1545 1546 1547 1547 1548 1549 1549 1550 1551 1552 1553 1553 1554 1555 1555 1555 1555 1555 1556 1556 1556 1557 1557 1558 1558 1558 1557 1557 1558 1558 1558 1558 1558 1558 1559 1559 1559 1559 1559 1559 1558 1558 1557 1557 1556 1555 1554
1521 1522 1524 1526 1528 1530 1532 1533 1535 1537 1538 1540 1541 1542 1542 1543 1544 1545 1546 1547 1548 1548 1548 1549 1550 1550 1551 1552 1553 1554 1554 1555 1555 1555 1555 1555 1556 1556 1557 1557 1557 1557 1557 1557 1557 1557 1557 1557 1558 1558 1558 1558 1558 1558 1558 1558 1558 1557 1557 1556 1555 1554 1554
1520 1522 1524 1526 1528 1530 1532 1533 1534 1536 1537 1538 1539 1540 1541 1542 1543 1544 1545 1546 1547 1547 1548 1548 1549 1550 1550 1550 1551 1552 1553 1554 1554 1554 1554 1554 1554 1555 1555 1556 1556 1556 1556 1556 1555 1555 1556 1556 1556 1557 1557 1557 1557 1557 1557 1556 1556 1556 1556 1555 1555 1554 1553
1519 1521 1523 1526 1528 1530 1531 1532 1532 1533 1535 1536 1537 1538 1539 1540 1541 1542 1544 1545 1545 1546 1546 1547 1548 1548 1549 1549 1549 1549 1550 1552 1553 1553 1553 1553 1553 1553 1554 1554 1554 1554 1554 1554 1554 1554 1554 1555 1555 1555 1555 1555 1555 1555 1555 1555 1555 1555 1554 1554 1553 1552 1552
1518 1520 1522 1525 1527 1528 1529 1530 1530 1531 1532 1534 1535 1536 1537 1538 1539 1540 1541 1543 1544 1544 1544 1545 1546 1547 1547 1547 1547 1548 1549 1550 1551 1551 1551 1551 1551 1551 1552 1552 1552 1552 1552 1553 1553 1553 1553 1553 1553 1554 1554 1554 1554 1554 1553 1553 1553 1553 1553 1552 1551 1551 1550
1517 1519 1521 1523 1525 1526 1527 1528 1529 1530 1531 1532 1532 1533 1535 1535 1536 1537 1538 1540 1541 1541 1542 1543 1544 1545 1546 1546 1546 1546 1547 1548 1548 1548 1548 1549 1549 1549 1549 1549 1550 1550 1550 1550 1551 1551 1552 1552 1552 1552 1552 1552 1552 1552 1552 1552 1552 1551 1551 1550 1550 1549 1548
1516 1518 1519 1521 1523 1523 1525 1527 1528 1528 1529 1530 1530 1531 1532 1532 1533 1534 1536 1537 1538 1538 1540 1542 1543 1544 1544 1544 1544 1544 1544 1544 1545 1545 1546 1546 1546 1547 1547 1547 1548 1548 1548 1548 1549 1549 1550 1550 1550 1551 1551 1551 1551 1550 1550 1550 1550 1549 1549 1548 1548 1547 1546
1515 1517 1518 1519 1520 1522 1523 1525 1526 1526 1527 1528 1528 1528 1528 1529 1531 1532 1533 1535 1536 1537 1538 1540 1540 1541 1541 1541 1542 1542 1542 1542 1542 1542 1542 1543 1543 1544 1544 1544 1545 1545 1545 1546 1547 1547 1548 1548 1549 1549 1549 1549 1549 1548 1548 1548 1548 1547 1547 1546 1545 1545 1544
1514 1515 1517 1518 1519 1520 1521 1522 1523 1524 1525 1524 1525 1526 1526 1527 1529 1529 1530 1533 1535 1535 1536 1536 1537 1538 1538 1539 1539 1539 1539 1539 1539 1539 1540 1540 1540 1541 1541 1542 1542 1542 1543 1543 1544 1545 1546 1546 1547 1547 1547 1547 1547 1546 1546 1546 1546 1546 1545 1544 1543 1542 1541
1513 1514 1515 1516 1517 1517 1518 1519 1520 1521 1521 1521 1522 1524 1525 1526 1527 1527 1529 1531 1532 1533 1534 1534 1535 1535 1536 1537 1537 1537 1537 1537 1537 1537 1537 1537 1538 1538 1539 1539 1539 1540 1540 1541 1541 1542 1543 1544 1544 1545 1545 1545 1545 1545 1544 1544 1544 1543 1543 1542 1541 1540 1539
1511 1513 1514 1514 1515 1515 1516 1517 1518 1518 1519 1519 1521 1523 1523 1525 1526 1527 1528 1530 1530 1531 1532 1532 1533 1533 1534 1534 1534 1534 1535 1535 1535 1535 1535 1535 1536 1536 1536 1536 1537 1537 1538 1538 1539 1540 1541 1541 1542 1543 1543 1543 1543 1542 1542 1542 1541 1541 1540 1540 1539 1538 1537
1510 1511 1512 1513 1513 1514 1514 1515 1516 1516 1518 1519 1520 1522 1523 1524 1526 1527 1528 1528 1529 1530 1530 1530 1531 1531 1531 1532 1532 1533 1533 1533 1533 1533 1533 1533 1533 1533 1534 1534 1534 1535 1535 1536 1536 1537 1538 1539 1540 1540 1541 1540 1540 1540 1540 1540 1539 1539 1538 1537 1537 1536 1535
1509 1510 1511 1512 1512 1513 1513 1514 1514 1516 1517 1518 1520 1521 1522 1524 1525 1526 1527 1527 1528 1528 1529 1529 1529 1529 1530 1530 1531 1531 1531 1531 1531 1531 1531 1531 1531 1531 1531 1531 1532 1532 1533 1533 1534 1535 1537 1537 1538 1538 1539 1539 1538 1538 1538 1538 1537 1536 1536 1535 1534 1534 1533
1509 1510 1511 1511 1512 1513 1513 1514 1514 1515 1516 1518 1519 1520 1521 1522 1523 1524 1525 1526 1526 1527 1527 1527 1528 1528 1528 1529 1529 1529 1530 1530 1530 1530 1530 1530 1529 1529 1529 1529 1530 1530 1531 1532 1533 1534 1535 1536 1536 1537 1537 1537 1536 1536 1536 1536 1535 1534 1534 1533 1532 1531 1530
1509 1510 1511 1511 1512 1513 1513 1514 1515 1515 1516 1517 1518 1519 1520 1521 1522 1522 1523 1524 1525 1525 1525 1526 1526 1526 1527 1527 1527 1528 1528 1528 1528 1528 1528 1528 1528 1528 1528 1528 1528 1529 1529 1531 1532 1533 1534 1534 1535 1535 1535 1535 1535 1535 1534 1534 1533 1532 1532 1531 1530 1528 1527
1509 1510 1511 1511 1512 1513 1513 1514 1515 1515 1516 1516 1517 1518 1518 1519 1520 1521 1521 1522 1523 1523 1524 1524 1524 1525 1525 1525 1526 1526 1526 1527 1527 1527 1527 1527 1527 1527 1527 1527 1527 1528 1529 1530 1531 1532 1532 1533 1533 1533 1533 1533 1533 1533 1532 1531 1531 1530 1529 1528 1527 1526 1525
1509 1510 1510 1511 1512 1512 1513 1513 1514 1514 1515 1515 1516 1516 1517 1517 1518 1518 1519 1520 1521 1521 1522 1523 1523 1523 1524 1524 1524 1524 1525 1525 1525 1526 1526 1526 1526 1526 1526 1526 1527 1528 1529 1529 1530 1531 1531 1531 1531 1531 1532 1532 1531 1531 1530 1529 1528 1527 1526 1525 1524 1523 1522
1509 1509 1509 1510 1510 1510 1511 1511 1512 1513 1513 1514 1514 1515 1515 1516 1516 1517 1517 1518 1519 1520 1521 1521 1522 1522 1522 1522 1523 1523 1523 1524 1524 1524 1525 1525 1525 1525 1526 1526 1527 1527 1528 1529 1529 1529 1530 1530 1530 1530 1530 1530 1529 1528 1528 1527 1525 1524 1523 1522 1520 1519 1518
1507 1507 1507 1507 1507 1508 1508 1509 1509 1511 1511 1512 1513 1513 1514 1514 1514 1515 1516 1516 1517 1518 1519 1519 1519 1519 1520 1520 1520 1521 1521 1522 1522 1523 1524 1524 1524 1525 1525 1526 1526 1527 1527 1527 1528 1528 1528 1528 1528 1528 1528 1527 1527 1526 1525 1524 1522 1521 1520 1518 1517 1515 1514
1504 1504 1505 1505 1504 1504 1505 1506 1507 1508 1509 1510 1511 1511 1512 1512 1512 1513 1514 1514 1515 1516 1516 1517 1517 1517 1517 1517 1518 1518 1519 1520 1521 1522 1522 1523 1523 1524 1524 1525 1525 1525 1525 1526 1526 1526 1526 1526 1526 1526 1526 1525 1524 1523 1522 1520 1519 1518 1516 1515 1513 1512 1511
1500 1501 1501 1502 1501 1501 1502 1503 1504 1505 1506 1507 1508 1509 1509 1510 1510 1511 1511 1512 1513 1513 1514 1514 1515 1515 1515 1515 1516 1516 1517 1518 1519 1520 1521 1521 1522 1522 1523 1523 1523 1524 1524 1524 1524 1524 1524 1524 1524 1523 1523 1522 1521 1520 1519 1517 1516 1514 1513 1512 1510 1508 1507